Regional Weather Roundup
Issued by NWS

Home | Current Version | Previous Version | Text Only | Print | Product List | Glossary On
Versions: 1 2 3 4 5 6 7 8 9 10 11 12 13 14 15 16 17 18 19 20 21 22 23 24 25 26 27 28 29 30 31 32 33 34 35 36 37 38 39 40 41 42 43 44 45 46 47 48 49 50
000
ASUS43 KTOP 022159
RWRKS

WEATHER ROUNDUP FOR KANSAS
NATIONAL WEATHER SERVICE GOODLAND KS
500 PM CDT THU JUL 02 2015

NOTE:  "FAIR" INDICATES FEW OR NO CLOUDS BELOW 12,000 FEET WITH NO
SIGNIFICANT WEATHER AND/OR OBSTRUCTIONS TO VISIBILITY.

KSZ001>006-013>018-027>032-041>047-022300-
NORTHWEST KANSAS

CITY           SKY/WX    TMP DP  RH WIND       PRES   REMARKS
GOODLAND       SUNNY     86  57  37 N16G23    30.06F
HAYS           MOSUNNY   84  63  48 W6        29.97F
HILL CITY      LGT RAIN  90  58  33 N8        29.96F
RUSSELL        MOSUNNY   81  68  64 SW9       29.94F
$$

KSZ061>065-074>080-084>089-022300-
SOUTHWEST KANSAS

CITY           SKY/WX    TMP DP  RH WIND       PRES   REMARKS
DODGE CITY     PTSUNNY   77  66  68 NE7       30.01F
ELKHART          N/A     89  58  35 NE10        N/A
GARDEN CITY    TSTM      71  68  90 W7        30.04R VSB 3/4
GREAT BEND     MOSUNNY   79  66  65 W6        29.98F
LIBERAL        PTSUNNY   90  63  40 NE7       29.99F
$$

KSZ066>073-081>083-090>101-022300-
SOUTHEAST KANSAS

CITY           SKY/WX    TMP DP  RH WIND       PRES   REMARKS
CHANUTE        LGT RAIN  78  71  79 N5        29.93R
COFFEYVILLE    LGT RAIN  80  71  74 N5        29.89R
HUTCHINSON     LGT RAIN  73  67  81 SW8       29.94F
MEDICINE LODGE   N/A     78  67  68 N15       29.96S
NEWTON         CLOUDY    70  63  78 NW6       29.99S
PARSONS        CLOUDY    80  72  76 N7        29.91R
WICHITA INTL   LGT RAIN  76  71  85 N6        29.96S
WICHITA JABRA  RAIN      75  72  90 W3        29.97F FOG
WICHITA MCCONL LGT RAIN  75  72  88 N8        29.98R
WINFIELD       CLOUDY    79  71  76 N13       29.96R
$$

KSZ007>012-019>026-033>040-048>060-102>105-022300-
NORTHEAST KANSAS

CITY           SKY/WX    TMP DP  RH WIND       PRES   REMARKS
CONCORDIA      MOSUNNY   84  69  60 SW9       29.91F
EMPORIA        CLOUDY    78  68  71 CALM      29.94R
LAWRENCE       LGT RAIN  72  68  87 NE6       29.93S
MANHATTAN      CLOUDY    83  70  64 W5        29.91S
OLATHE IND     CLOUDY    74  68  81 NE8       29.94R
OLATHE EXE     CLOUDY    73  68  84 NE8       29.93R
SALINA         MOSUNNY   83  69  62 W9        29.93F
TOPEKA BILLARD PTSUNNY   76  70  82 E7        29.92S
TOPEKA FORBES  PTSUNNY   78  69  73 NE7       29.92S
$$



USA.gov is the U.S. government's official web portal to all federal, state and local government web resources and services.